Estación municipal de Les Masies de Roda (Osona, Ter)

Consulta los datos en tiempo real de la estación municipal de Les Masies de Roda





Hora UTC 10:50
Temperatura 32.4 ºC
Suelo 15 cm 40.5 ºC
Humedad 37.0 %
Presión 1020.5 hPa
Pluja 0.0 mm
Velocidad viento 3.2 km/h
Dirección viento NNE
Radiación solar 672.9 W/m²

Datos diarios 2026-09-04



Hora UTC (invierno +1h; verano +2h)
Temperatura (ºC) Humedad (%) Presión (hPa) Velocidad viento (km/h) Precipitación (mm) Radiación solar (W/m²)
Hora UTC Aire Suelo 15 cm Humedad Presión Vel. Dir. Vel. Max Dir. Intent. máx 5 min. Rad. Sol.
00:05 19.8 17.7 87.5 1022.6 0.0 NNE 0.0 NE 0.0 10.6
00:10 19.7 17.5 90.5 1022.4 2.0 ENE 3.5 E 0.0 13.0
00:15 19.8 17.5 90.5 1022.5 0.3 NE 1.8 NE 0.0 13.1
00:20 19.7 17.5 89.6 1022.4 0.3 NW 2.8 NW 0.0 12.1
00:25 19.6 17.4 91.1 1022.5 0.0 NNE 0.0 NW 0.0 12.8
00:30 19.6 17.4 91.3 1022.4 0.0 NNE 0.0 NW 0.0 12.1
00:35 19.6 17.3 92.0 1022.4 0.0 NNE 0.0 NW 0.0 10.9
00:40 19.5 17.3 92.1 1022.3 0.0 NNE 0.0 N 0.0 12.6
00:45 19.5 17.3 91.6 1022.3 0.0 NNE 0.0 N 0.0 12.3
00:50 19.4 17.2 91.7 1022.3 0.0 NNE 0.0 N 0.0 13.1
00:55 19.4 17.2 92.4 1022.2 0.0 NNE 0.0 N 0.0 12.4
01:00 19.4 17.2 92.8 1022.3 0.1 N 2.1 N 0.0 12.9
01:05 19.4 17.3 91.8 1022.0 1.0 N 2.5 N 0.0 11.9
01:10 19.3 17.2 91.8 1022.1 0.0 NNE 0.0 NNW 0.0 12.2
01:15 19.1 17.0 92.1 1022.0 1.4 NNE 2.5 NNE 0.0 11.9
01:20 19.2 16.9 92.4 1022.1 0.1 NNE 1.8 NNE 0.0 11.7
01:25 18.9 16.8 91.9 1022.0 1.3 NNW 3.2 NW 0.0 9.9
01:30 18.7 16.7 92.5 1022.1 0.7 NW 3.2 NW 0.0 9.4
01:35 18.7 16.6 93.4 1022.0 0.0 NNE 0.0 NW 0.0 12.2
01:40 18.7 16.6 93.7 1022.0 1.0 S 2.8 S 0.0 11.5
01:45 18.7 16.6 94.3 1022.0 0.7 WSW 2.5 WSW 0.0 10.4
01:50 18.6 16.6 94.4 1021.9 0.0 NNE 0.0 WSW 0.0 10.6
01:55 18.6 16.6 94.0 1022.0 0.0 NNE 0.0 WSW 0.0 11.4
02:00 18.4 16.5 94.0 1021.8 0.0 NNE 0.0 WSW 0.0 9.2
02:05 18.5 16.4 94.3 1022.0 0.0 NNE 0.0 WSW 0.0 8.6
02:10 18.4 16.3 93.8 1021.7 0.0 NNE 0.0 WSW 0.0 9.4
02:15 18.4 16.3 94.2 1021.9 0.0 NNE 0.0 WSW 0.0 8.7
02:20 18.6 16.4 93.7 1021.7 0.0 NNE 0.0 WSW 0.0 8.2
02:25 18.3 16.4 93.3 1021.9 1.7 NW 3.2 NW 0.0 8.4
02:30 18.2 16.3 93.5 1021.8 0.1 NW 1.4 NW 0.0 7.0
02:35 18.3 16.1 94.5 1021.8 0.0 NNE 0.0 NW 0.0 8.2
02:40 18.2 16.1 93.6 1021.8 0.0 NNE 0.0 NW 0.0 9.1
02:45 18.1 16.0 93.7 1021.7 0.0 NNE 0.0 NW 0.0 7.2
02:50 18.0 15.9 93.8 1021.8 0.0 NNE 0.0 NW 0.0 7.9
02:55 18.0 15.8 93.8 1021.7 0.0 NNE 0.0 NW 0.0 6.4
03:00 17.8 15.7 93.2 1021.8 0.0 NNE 0.0 NW 0.0 5.6
03:05 17.7 15.7 94.0 1021.7 0.2 NW 2.1 NW 0.0 7.4
03:10 17.7 15.6 94.6 1021.8 0.0 NNE 0.0 NW 0.0 208.9
03:15 17.7 15.5 94.7 1021.6 0.0 NNE 0.0 NW 0.0 180.1
03:20 17.7 15.5 94.7 1021.7 0.0 NNE 0.0 NW 0.0 202.4
03:25 17.7 15.5 94.8 1021.6 0.0 NNE 0.0 NW 0.0 209.2
03:30 17.6 15.5 94.8 1021.7 0.0 NNE 0.0 NW 0.0 185.5
03:35 17.5 15.4 95.3 1021.5 0.0 NNE 0.0 NW 0.0 286.5
03:40 17.6 15.4 95.5 1021.6 0.0 NNE 0.0 NW 0.0 246.5
03:45 17.6 15.5 95.1 1021.5 0.0 NNE 0.0 NW 0.0 174.0
03:50 17.4 15.5 95.0 1021.5 0.5 NE 2.5 NE 0.0 159.5
03:55 17.3 15.4 94.8 1021.4 0.0 NNE 0.0 NE 0.0 275.6
04:00 17.2 15.2 95.1 1021.4 0.0 NNE 0.0 NE 0.0 330.3
04:05 17.2 15.2 95.0 1021.3 0.5 WNW 3.2 WNW 0.0 221.2
04:10 17.0 15.1 95.1 1021.4 2.1 WNW 3.5 NW 0.0 191.3
04:15 17.0 15.0 95.6 1021.3 0.5 WSW 2.5 WSW 0.0 319.3
04:20 17.1 15.0 96.2 1021.3 0.0 NNE 0.0 NW 0.0 313.7
04:25 17.3 15.1 96.2 1021.4 0.3 NNE 2.5 NNE 0.0 333.3
04:30 17.2 15.2 95.8 1021.3 0.0 NNE 0.0 NNE 0.0 317.6
04:35 17.0 15.1 95.7 1021.4 0.0 NNE 0.0 NNE 0.0 335.7
04:40 17.1 15.0 96.1 1021.3 0.0 NNE 0.0 NNE 0.0 336.8
04:45 17.1 15.0 96.1 1021.4 0.0 NNE 0.0 NNE 0.0 323.3
04:50 17.0 15.0 95.8 1021.2 1.1 N 2.5 N 0.0 266.7
04:55 17.0 14.9 96.1 1021.3 1.1 NE 2.1 NE 0.0 263.7
05:00 17.2 14.9 96.4 1021.1 0.5 NE 2.5 NE 0.0 265.9
05:05 17.1 14.9 95.8 1021.3 0.6 NW 2.5 NW 0.0 271.6
05:10 16.7 14.9 95.6 1021.2 0.2 NW 2.1 NW 0.0 280.4
05:15 16.7 14.7 95.9 1021.3 2.3 NW 3.2 NNW 0.0 306.6
05:20 16.7 14.7 96.2 1021.2 0.7 NNW 3.2 NNW 0.0 274.3
05:25 16.8 14.6 96.2 1021.2 0.0 NNE 0.0 NNW 0.0 279.1
05:30 16.7 14.6 96.3 1021.1 0.0 NNE 0.0 NNW 0.0 275.6
05:35 16.8 14.7 96.5 1021.1 0.3 WNW 3.5 WNW 0.0 303.0
05:40 16.6 14.7 95.8 1021.1 2.6 WNW 3.2 WNW 0.0 290.1
05:45 16.3 14.6 95.9 1021.1 0.2 NW 2.1 NW 0.0 287.4
05:50 16.4 14.6 96.2 1021.2 0.0 NNE 0.0 NW 0.0 287.9
05:55 16.5 14.7 96.5 1021.2 0.0 NNE 0.0 NW 0.0 289.6
06:00 17.0 14.9 96.9 1021.3 0.0 NNE 0.0 NW 0.0 295.0
06:05 17.3 15.2 96.7 1021.2 0.0 NNE 0.0 NW 0.0 306.9
06:10 17.4 15.7 96.3 1021.3 0.0 NNE 0.0 NW 0.0 286.5
06:15 17.7 16.1 96.0 1021.3 0.0 NNE 0.0 NW 0.0 308.4
06:20 18.0 16.5 94.4 1021.4 0.7 NW 2.8 NW 0.0 270.1
06:25 18.1 16.9 93.5 1021.3 0.0 NNE 0.0 NW 0.0 184.5
06:30 18.3 17.4 93.5 1021.4 0.0 NNE 0.0 NW 0.0 13.7
06:35 18.6 17.8 93.2 1021.2 0.0 NNE 0.0 NW 0.0 20.9
06:40 19.0 18.2 91.9 1021.4 0.7 W 2.8 W 0.0 25.5
06:45 19.4 18.6 88.8 1021.3 0.0 NNE 0.0 W 0.0 29.4
06:50 19.9 18.9 87.0 1021.4 2.8 W 4.6 W 0.0 30.5
06:55 20.1 19.3 85.3 1021.4 2.0 W 3.9 WNW 0.0 33.3
07:00 20.1 19.4 84.4 1021.2 1.4 WNW 3.5 WNW 0.0 35.6
07:05 20.3 19.7 84.7 1021.4 1.4 W 3.9 W 0.0 38.5
07:10 20.6 20.1 84.0 1021.2 1.6 W 3.2 WNW 0.0 42.3
07:15 20.9 20.5 81.9 1021.4 1.9 W 4.2 W 0.0 41.4
07:20 21.2 21.0 80.8 1021.2 2.8 WSW 4.2 SSW 0.0 46.4
07:25 21.4 21.4 78.3 1021.2 1.6 SSE 3.9 SSE 0.0 50.8
07:30 21.8 21.9 77.6 1021.3 2.3 SSE 3.5 SSE 0.0 50.6
07:35 22.0 22.4 77.0 1021.1 2.6 S 3.9 S 0.0 54.7
07:40 22.1 22.9 75.6 1021.3 1.8 SE 2.8 ESE 0.0 47.5
07:45 22.6 23.6 75.0 1021.1 2.3 SSW 4.6 ENE 0.0 56.5
07:50 22.6 24.3 73.0 1021.3 2.4 ENE 5.0 ENE 0.0 55.7
07:55 23.1 24.8 71.8 1021.1 0.7 E 3.5 S 0.0 59.9
08:00 23.4 25.4 70.4 1021.2 2.4 ESE 5.7 SE 0.0 61.1
08:05 23.6 26.0 69.8 1021.2 1.4 SSW 6.0 SSW 0.0 57.0
08:10 24.0 26.6 69.7 1021.0 3.8 WSW 6.0 SSW 0.0 63.3
08:15 23.7 27.1 71.2 1021.2 3.3 WSW 5.7 SSW 0.0 69.8
08:20 24.2 27.6 69.6 1021.0 1.4 SSW 5.7 SSW 0.0 54.9
08:25 24.8 28.3 68.5 1021.0 2.9 WSW 5.3 WSW 0.0 70.6
08:30 24.7 28.8 67.4 1021.2 1.3 SSE 3.5 S 0.0 74.9
08:35 24.8 29.1 67.4 1021.0 2.8 SSE 6.0 S 0.0 79.7
08:40 24.8 29.3 67.8 1021.2 2.8 SSE 5.0 SSE 0.0 82.9
08:45 25.1 29.6 66.6 1021.0 0.7 SSE 3.5 SSE 0.0 82.0
08:50 25.6 30.1 66.5 1021.0 1.8 W 4.2 W 0.0 78.2
08:55 25.9 30.6 66.3 1021.2 3.4 WSW 6.4 SW 0.0 89.4
09:00 26.1 31.2 64.5 1021.1 1.0 W 3.5 NW 0.0 99.5
09:05 26.3 31.6 64.7 1021.0 2.9 SW 5.0 SSW 0.0 92.3
09:10 26.8 32.2 61.0 1021.2 3.2 SE 5.0 SE 0.0 76.7
09:15 26.8 32.7 60.2 1021.1 1.8 ENE 3.5 ENE 0.0 80.1
09:20 27.2 33.2 59.5 1020.9 1.8 NNE 4.2 N 0.0 93.0
09:25 27.1 33.3 59.8 1021.1 0.3 NW 2.8 N 0.0 100.0
09:30 27.7 33.8 60.3 1021.2 3.2 SW 5.7 WSW 0.0 111.0
09:35 28.7 34.7 56.7 1021.0 3.5 WSW 6.7 SSW 0.0 580.9
09:40 29.1 35.5 53.6 1020.8 1.4 SE 3.9 NE 0.0 613.6
09:45 29.8 36.2 52.9 1020.9 2.2 SW 5.7 SW 0.0 635.3
09:50 29.8 36.6 50.9 1021.0 4.2 E 7.1 E 0.0 630.1
09:55 29.6 36.6 51.1 1020.9 3.9 ENE 8.1 E 0.0 643.6
10:00 30.3 36.9 48.9 1020.6 0.9 E 3.5 N 0.0 664.4
10:05 30.8 37.4 46.3 1020.6 2.3 SSE 4.6 S 0.0 682.7
10:10 31.3 37.8 43.8 1020.6 3.6 SSE 6.0 ESE 0.0 690.8
10:15 31.4 38.0 40.5 1020.8 3.3 NE 7.4 E 0.0 698.0
10:20 31.2 38.2 41.2 1020.7 4.8 NE 7.8 NNE 0.0 707.4
10:25 31.1 38.4 40.6 1020.6 6.1 NE 9.2 NE 0.0 715.8
10:30 31.3 38.7 41.2 1020.4 1.4 NE 5.0 ENE 0.0 720.6
10:35 31.9 39.1 41.4 1020.4 2.6 W 7.1 WNW 0.0 713.2
10:40 32.5 39.7 38.5 1020.5 1.7 N 5.0 E 0.0 664.7
10:45 32.5 40.4 36.8 1020.6 4.5 E 7.8 E 0.0 603.7
10:50 32.4 40.5 37.0 1020.5 3.2 NNE 7.4 N 0.0 672.9
Máxima 32.5 40.5 96.9 1022.6 6.1 NE 9.2 NE 0.0 720.6
Mínima 16.3 14.6 36.8 1020.4
Total 0.0